Location: Steilacoom
(47.1700°N, 122.5700°W)
Time: 02:49:12
(UTC-08:00)

NUDT-PHONESAT - Visible Passes

Search period start: 29 January 2020 00:00
Search period end: 08 February 2020 00:00
Orbit: 485 x 505 km, 97.4° (Epoch: 29 January)

Date Brightness Start Highest point End Pass type
(mag) Time Alt. Az. Time Alt. Az. Time Alt. Az.
29 Jan ? 06:12:37 10° NE 06:15:47 28° E 06:18:58 10° SSE visible
29 Jan ? 18:26:19 10° SSW 18:29:35 31° W 18:32:52 10° NNW visible
30 Jan ? 05:52:05 10° NE 05:54:31 17° E 05:56:55 10° SE visible
30 Jan ? 18:04:48 10° S 18:08:22 56° W 18:11:57 10° NNW visible
31 Jan ? 17:43:36 10° SSE 17:47:13 79° ENE 17:50:51 10° N visible
01 Feb ? 06:42:30 10° NNE 06:46:06 67° ESE 06:49:41 10° S visible
01 Feb ? 18:57:54 10° SW 19:00:00 15° W 19:02:05 10° NW visible
02 Feb ? 06:21:32 10° NNE 06:24:54 36° E 06:28:15 10° SSE visible
02 Feb ? 18:35:40 10° SSW 18:38:41 25° W 18:41:43 10° NW visible
03 Feb ? 06:00:48 10° NE 06:03:38 21° E 06:06:25 10° SE visible
03 Feb ? 18:13:58 10° S 18:17:26 43° W 18:20:55 10° NNW visible
04 Feb ? 05:40:41 10° ENE 05:42:17 12° E 05:43:53 10° ESE visible
04 Feb ? 17:52:38 10° S 17:56:14 81° WSW 17:59:53 10° NNW visible
05 Feb ? 06:51:29 10° NNE 06:55:07 87° E 06:58:45 10° SSW visible
05 Feb ? 19:07:49 10° WSW 19:09:07 12° W 19:10:25 10° WNW visible
06 Feb ? 06:30:26 10° NNE 06:33:56 47° E 06:37:26 10° S visible
06 Feb ? 18:45:03 10° SW 18:47:45 20° W 18:50:28 10° NW visible
07 Feb ? 06:09:34 10° NE 06:12:42 26° E 06:15:47 10° SSE visible
07 Feb ? 18:23:09 10° SSW 18:26:28 34° W 18:29:47 10° NNW visible
